Time,TemperatureF,DewpointF,PressureIn,WindDirection,WindDirectionDegrees,WindSpeedMPH,WindSpeedGustMPH,Humidity,HourlyPrecipIn,Conditions,Clouds,dailyrainin,SoftwareType,DateUTC
2013-04-14 00:00:00,45.0,36.9,30.03,East,86,3.0,5.0,73,0.00,,---,0.00,VWS V14.01,2013-04-14 04:00:00,
2013-04-14 00:05:00,44.3,36.9,30.03,SE,124,4.0,7.0,75,0.00,,---,0.00,VWS V14.01,2013-04-14 04:05:00,
2013-04-14 00:10:00,43.6,36.9,30.03,East,101,4.0,7.0,77,0.00,,---,0.00,VWS V14.01,2013-04-14 04:10:00,
2013-04-14 00:15:00,43.8,36.7,30.03,East,96,5.0,7.0,76,0.00,,---,0.00,VWS V14.01,2013-04-14 04:15:00,
2013-04-14 00:20:00,44.1,36.4,30.02,East,98,5.0,7.0,74,0.00,,---,0.00,VWS V14.01,2013-04-14 04:20:00,
2013-04-14 00:25:00,44.3,36.5,30.02,East,84,4.0,8.0,74,0.00,,---,0.00,VWS V14.01,2013-04-14 04:25:00,
2013-04-14 00:30:00,44.1,36.4,30.03,ENE,74,2.0,8.0,74,0.00,,---,0.00,VWS V14.01,2013-04-14 04:30:00,
2013-04-14 00:35:00,43.9,36.5,30.03,East,86,3.0,8.0,75,0.00,,---,0.00,VWS V14.01,2013-04-14 04:35:00,
2013-04-14 00:40:00,43.7,36.3,30.03,East,82,4.0,8.0,75,0.00,,---,0.00,VWS V14.01,2013-04-14 04:40:00,
2013-04-14 00:45:00,43.7,36.3,30.03,ENE,78,3.0,8.0,75,0.00,,---,0.00,VWS V14.01,2013-04-14 04:45:00,
2013-04-14 00:50:00,43.8,36.1,30.03,East,86,3.0,8.0,74,0.00,,---,0.00,VWS V14.01,2013-04-14 04:50:00,
2013-04-14 00:56:00,43.9,36.2,30.03,East,84,4.0,8.0,74,0.00,,---,0.00,VWS V14.01,2013-04-14 04:56:00,
2013-04-14 01:00:00,43.8,36.1,30.03,East,84,3.0,8.0,74,0.00,,---,0.00,VWS V14.01,2013-04-14 05:00:00,
2013-04-14 01:01:00,43.7,36.0,30.03,East,86,4.0,6.0,74,0.00,,---,0.00,VWS V14.01,2013-04-14 05:01:00,
2013-04-14 01:06:00,43.5,36.1,30.03,East,90,5.0,7.0,75,0.00,,---,0.00,VWS V14.01,2013-04-14 05:06:00,
2013-04-14 01:11:00,43.4,36.0,30.03,East,91,5.0,7.0,75,0.00,,---,0.00,VWS V14.01,2013-04-14 05:11:00,
2013-04-14 01:16:00,43.3,35.9,30.03,East,94,3.0,7.0,75,0.00,,---,0.00,VWS V14.01,2013-04-14 05:16:00,
2013-04-14 01:21:00,43.0,36.0,30.03,East,88,4.0,7.0,76,0.00,,---,0.00,VWS V14.01,2013-04-14 05:21:00,
2013-04-14 01:26:00,42.9,35.9,30.04,East,86,4.0,7.0,76,0.00,,---,0.00,VWS V14.01,2013-04-14 05:26:00,
2013-04-14 01:31:00,42.8,36.1,30.04,ENE,73,3.0,7.0,77,0.00,,---,0.00,VWS V14.01,2013-04-14 05:31:00,
2013-04-14 01:36:00,42.8,36.1,30.04,East,84,3.0,7.0,77,0.00,,---,0.00,VWS V14.01,2013-04-14 05:36:00,
2013-04-14 01:41:00,42.9,36.2,30.04,East,82,4.0,7.0,77,0.00,,---,0.00,VWS V14.01,2013-04-14 05:41:00,
2013-04-14 01:46:00,42.8,36.1,30.04,East,82,4.0,7.0,77,0.00,,---,0.00,VWS V14.01,2013-04-14 05:46:00,
2013-04-14 01:51:00,42.7,36.0,30.04,ESE,105,5.0,7.0,77,0.00,,---,0.00,VWS V14.01,2013-04-14 05:51:00,
2013-04-14 01:56:00,42.5,35.8,30.04,East,91,5.0,7.0,77,0.00,,---,0.00,VWS V14.01,2013-04-14 05:56:00,
2013-04-14 02:00:00,42.6,35.9,30.04,East,84,6.0,9.0,77,0.00,,---,0.00,VWS V14.01,2013-04-14 06:00:00,
2013-04-14 02:01:00,42.6,35.9,30.03,East,79,4.0,7.0,77,0.00,,---,0.00,VWS V14.01,2013-04-14 06:01:00,
2013-04-14 02:07:00,42.6,35.9,30.03,East,100,4.0,7.0,77,0.00,,---,0.00,VWS V14.01,2013-04-14 06:07:00,
2013-04-14 02:12:00,42.7,36.0,30.04,East,86,3.0,8.0,77,0.00,,---,0.00,VWS V14.01,2013-04-14 06:12:00,
2013-04-14 02:17:00,42.5,35.8,30.03,East,98,4.0,8.0,77,0.00,,---,0.00,VWS V14.01,2013-04-14 06:17:00,
2013-04-14 02:22:00,42.4,35.7,30.03,East,86,5.0,8.0,77,0.00,,---,0.00,VWS V14.01,2013-04-14 06:22:00,
2013-04-14 02:27:00,42.3,35.9,30.03,East,95,7.0,8.0,78,0.00,,---,0.00,VWS V14.01,2013-04-14 06:27:00,
2013-04-14 02:32:00,42.3,35.9,30.03,East,85,6.0,8.0,78,0.00,,---,0.00,VWS V14.01,2013-04-14 06:32:00,
2013-04-14 02:37:00,42.2,35.8,30.02,East,88,5.0,8.0,78,0.00,,---,0.00,VWS V14.01,2013-04-14 06:37:00,
2013-04-14 02:42:00,42.1,35.8,30.02,East,99,6.0,8.0,78,0.00,,---,0.00,VWS V14.01,2013-04-14 06:42:00,
2013-04-14 02:47:00,41.9,35.9,30.03,East,88,5.0,8.0,79,0.00,,---,0.00,VWS V14.01,2013-04-14 06:47:00,
2013-04-14 02:52:00,41.7,36.0,30.02,East,89,6.0,8.0,80,0.00,,---,0.00,VWS V14.01,2013-04-14 06:52:00,
2013-04-14 02:57:00,41.6,35.9,30.02,East,84,5.0,9.0,80,0.00,,---,0.00,VWS V14.01,2013-04-14 06:57:00,
2013-04-14 03:00:00,41.6,35.9,30.02,ENE,77,4.0,9.0,80,0.00,,---,0.00,VWS V14.01,2013-04-14 07:00:00,
2013-04-14 03:02:00,41.5,35.8,30.02,East,83,4.0,7.0,80,0.00,,---,0.00,VWS V14.01,2013-04-14 07:02:00,
2013-04-14 03:07:00,41.4,35.7,30.02,East,82,4.0,7.0,80,0.00,,---,0.00,VWS V14.01,2013-04-14 07:07:00,
2013-04-14 03:12:00,41.3,35.6,30.02,East,86,3.0,7.0,80,0.00,,---,0.00,VWS V14.01,2013-04-14 07:12:00,
2013-04-14 03:17:00,41.1,35.7,30.02,East,79,4.0,7.0,81,0.00,,---,0.00,VWS V14.01,2013-04-14 07:17:00,
2013-04-14 03:22:00,41.0,35.6,30.03,East,79,4.0,7.0,81,0.00,,---,0.00,VWS V14.01,2013-04-14 07:22:00,
2013-04-14 03:27:00,40.9,35.5,30.03,East,96,5.0,7.0,81,0.00,,---,0.00,VWS V14.01,2013-04-14 07:27:00,
2013-04-14 03:32:00,41.0,35.6,30.03,East,94,4.0,7.0,81,0.00,,---,0.00,VWS V14.01,2013-04-14 07:32:00,
2013-04-14 03:37:00,41.1,35.7,30.02,East,84,5.0,7.0,81,0.00,,---,0.00,VWS V14.01,2013-04-14 07:37:00,
2013-04-14 03:42:00,41.2,35.8,30.03,ESE,102,7.0,7.0,81,0.00,,---,0.00,VWS V14.01,2013-04-14 07:42:00,
2013-04-14 03:47:00,41.5,35.8,30.03,ESE,108,4.0,7.0,80,0.00,,---,0.00,VWS V14.01,2013-04-14 07:47:00,
2013-04-14 03:52:00,41.6,35.9,30.03,ENE,75,5.0,7.0,80,0.00,,---,0.00,VWS V14.01,2013-04-14 07:52:00,
2013-04-14 03:57:00,41.8,36.1,30.04,ESE,107,3.0,7.0,80,0.00,,---,0.00,VWS V14.01,2013-04-14 07:57:00,
2013-04-14 04:00:00,41.8,36.1,30.04,ESE,113,5.0,7.0,80,0.00,,---,0.00,VWS V14.01,2013-04-14 08:00:00,
2013-04-14 04:02:00,41.8,36.1,30.04,East,92,4.0,6.0,80,0.00,,---,0.00,VWS V14.01,2013-04-14 08:02:00,
2013-04-14 04:07:00,41.9,36.2,30.04,East,87,4.0,6.0,80,0.00,,---,0.00,VWS V14.01,2013-04-14 08:07:00,
2013-04-14 04:12:00,41.8,36.4,30.04,East,95,7.0,7.0,81,0.00,,---,0.00,VWS V14.01,2013-04-14 08:12:00,
2013-04-14 04:17:00,41.9,36.2,30.04,East,84,5.0,7.0,80,0.00,,---,0.00,VWS V14.01,2013-04-14 08:17:00,
2013-04-14 04:22:00,41.9,36.5,30.04,East,84,4.0,7.0,81,0.00,,---,0.00,VWS V14.01,2013-04-14 08:22:00,
2013-04-14 04:27:00,41.9,36.5,30.04,East,79,4.0,7.0,81,0.00,,---,0.00,VWS V14.01,2013-04-14 08:27:00,
2013-04-14 04:32:00,41.8,36.7,30.04,ESE,107,5.0,8.0,82,0.00,,---,0.00,VWS V14.01,2013-04-14 08:32:00,
2013-04-14 04:38:00,41.8,36.7,30.05,East,84,5.0,8.0,82,0.00,,---,0.00,VWS V14.01,2013-04-14 08:38:00,
2013-04-14 04:43:00,41.8,37.0,30.05,East,86,4.0,8.0,83,0.00,,---,0.00,VWS V14.01,2013-04-14 08:43:00,
2013-04-14 04:48:00,41.7,36.9,30.05,ENE,70,4.0,8.0,83,0.00,,---,0.00,VWS V14.01,2013-04-14 08:48:00,
2013-04-14 04:53:00,41.6,37.1,30.05,ENE,68,3.0,8.0,84,0.00,,---,0.00,VWS V14.01,2013-04-14 08:53:00,
2013-04-14 04:58:00,41.4,36.6,30.05,East,84,5.0,8.0,83,0.00,,---,0.00,VWS V14.01,2013-04-14 08:58:00,
2013-04-14 05:00:00,41.4,36.6,30.05,East,80,4.0,8.0,83,0.00,,---,0.00,VWS V14.01,2013-04-14 09:00:00,
2013-04-14 05:02:00,41.4,36.6,30.05,East,95,4.0,6.0,83,0.00,,---,0.00,VWS V14.01,2013-04-14 09:02:00,
2013-04-14 05:08:00,41.4,36.6,30.05,East,84,4.0,6.0,83,0.00,,---,0.00,VWS V14.01,2013-04-14 09:08:00,
2013-04-14 05:13:00,41.4,36.6,30.05,East,96,3.0,7.0,83,0.00,,---,0.00,VWS V14.01,2013-04-14 09:13:00,
2013-04-14 05:18:00,41.4,36.9,30.05,ENE,78,5.0,7.0,84,0.00,,---,0.00,VWS V14.01,2013-04-14 09:18:00,
2013-04-14 05:23:00,41.5,37.0,30.04,ENE,70,3.0,7.0,84,0.00,,---,0.00,VWS V14.01,2013-04-14 09:23:00,
2013-04-14 05:28:00,41.4,36.9,30.04,East,88,4.0,7.0,84,0.00,,---,0.00,VWS V14.01,2013-04-14 09:28:00,
2013-04-14 05:33:00,41.5,37.0,30.04,ESE,103,5.0,7.0,84,0.00,,---,0.00,VWS V14.01,2013-04-14 09:33:00,
2013-04-14 05:38:00,41.5,37.3,30.04,East,96,5.0,7.0,85,0.00,,---,0.00,VWS V14.01,2013-04-14 09:38:00,
2013-04-14 05:43:00,41.5,37.3,30.03,ENE,73,5.0,7.0,85,0.00,,---,0.00,VWS V14.01,2013-04-14 09:43:00,
2013-04-14 05:48:00,41.5,37.3,30.03,East,80,5.0,8.0,85,0.00,,---,0.00,VWS V14.01,2013-04-14 09:48:00,
2013-04-14 05:53:00,41.5,37.3,30.03,East,83,7.0,8.0,85,0.00,,---,0.00,VWS V14.01,2013-04-14 09:53:00,
2013-04-14 05:58:00,41.5,37.3,30.02,East,81,7.0,9.0,85,0.00,,---,0.00,VWS V14.01,2013-04-14 09:58:00,
2013-04-14 06:00:00,41.5,37.3,30.02,East,91,7.0,9.0,85,0.00,,---,0.00,VWS V14.01,2013-04-14 10:00:00,
2013-04-14 06:03:00,41.5,37.0,30.02,East,96,5.0,10.0,84,0.00,,---,0.00,VWS V14.01,2013-04-14 10:03:00,
2013-04-14 06:08:00,41.6,37.1,30.02,SE,124,7.0,11.0,84,0.00,,---,0.00,VWS V14.01,2013-04-14 10:08:00,
2013-04-14 06:13:00,41.6,37.1,30.01,ESE,104,7.0,11.0,84,0.00,,---,0.00,VWS V14.01,2013-04-14 10:13:00,
2013-04-14 06:18:00,41.6,37.1,30.01,East,92,7.0,11.0,84,0.00,,---,0.00,VWS V14.01,2013-04-14 10:18:00,
2013-04-14 06:23:00,41.6,37.1,30.01,East,80,7.0,11.0,84,0.00,,---,0.00,VWS V14.01,2013-04-14 10:23:00,
2013-04-14 06:28:00,41.6,37.4,30.01,ENE,70,5.0,11.0,85,0.00,,---,0.00,VWS V14.01,2013-04-14 10:28:00,
2013-04-14 06:33:00,41.6,37.4,30.00,East,79,5.0,11.0,85,0.00,,---,0.00,VWS V14.01,2013-04-14 10:33:00,
2013-04-14 06:38:00,41.7,37.5,30.00,East,86,7.0,11.0,85,0.00,,---,0.00,VWS V14.01,2013-04-14 10:38:00,
2013-04-14 06:43:00,41.7,37.5,29.99,East,98,8.0,11.0,85,0.00,,---,0.00,VWS V14.01,2013-04-14 10:43:00,
2013-04-14 06:48:00,41.9,37.7,29.99,ESE,110,8.0,11.0,85,0.00,,---,0.00,VWS V14.01,2013-04-14 10:48:00,
2013-04-14 06:53:00,41.8,37.6,29.98,East,98,9.0,11.0,85,0.00,,---,0.00,VWS V14.01,2013-04-14 10:53:00,
2013-04-14 06:58:00,41.7,37.5,29.99,East,100,7.0,11.0,85,0.00,,---,0.00,VWS V14.01,2013-04-14 10:58:00,
2013-04-14 07:00:00,41.7,37.5,29.99,ESE,114,6.0,11.0,85,0.00,,---,0.00,VWS V14.01,2013-04-14 11:00:00,
2013-04-14 07:03:00,41.7,37.5,29.99,East,89,5.0,11.0,85,0.00,,---,0.00,VWS V14.01,2013-04-14 11:03:00,
2013-04-14 07:08:00,41.6,37.4,29.99,SE,125,7.0,11.0,85,0.00,,---,0.00,VWS V14.01,2013-04-14 11:08:00,
2013-04-14 07:13:00,41.6,37.4,29.99,ESE,108,7.0,13.0,85,0.00,,---,0.00,VWS V14.01,2013-04-14 11:13:00,
2013-04-14 07:18:00,41.7,37.5,29.99,East,93,6.0,13.0,85,0.00,,---,0.00,VWS V14.01,2013-04-14 11:18:00,
2013-04-14 07:23:00,41.7,37.5,29.99,ESE,119,6.0,13.0,85,0.00,,---,0.00,VWS V14.01,2013-04-14 11:23:00,
2013-04-14 07:28:00,42.1,37.6,29.99,ESE,122,7.0,13.0,84,0.00,,---,0.00,VWS V14.01,2013-04-14 11:28:00,
2013-04-14 07:33:00,42.2,37.7,29.99,ESE,104,8.0,13.0,84,0.00,,---,0.00,VWS V14.01,2013-04-14 11:33:00,
2013-04-14 07:38:00,42.4,37.9,30.00,ESE,105,9.0,13.0,84,0.00,,---,0.00,VWS V14.01,2013-04-14 11:38:00,
2013-04-14 07:43:00,42.5,38.0,30.00,ESE,118,5.0,13.0,84,0.00,,---,0.00,VWS V14.01,2013-04-14 11:43:00,
2013-04-14 07:48:00,42.4,37.9,30.00,ESE,113,13.0,14.0,84,0.00,,---,0.00,VWS V14.01,2013-04-14 11:48:00,
2013-04-14 07:53:00,42.5,38.0,30.01,East,86,8.0,17.0,84,0.00,,---,0.00,VWS V14.01,2013-04-14 11:53:00,
2013-04-14 07:58:00,42.6,38.1,30.00,ESE,122,17.0,17.0,84,0.00,,---,0.00,VWS V14.01,2013-04-14 11:58:00,
2013-04-14 08:00:00,42.6,38.1,30.00,SE,129,11.0,17.0,84,0.00,,---,0.00,VWS V14.01,2013-04-14 12:00:00,
2013-04-14 08:03:00,42.9,38.1,30.01,SE,139,11.0,18.0,83,0.00,,---,0.00,VWS V14.01,2013-04-14 12:03:00,
2013-04-14 08:08:00,43.2,38.1,30.01,ESE,115,12.0,18.0,82,0.00,,---,0.00,VWS V14.01,2013-04-14 12:08:00,
2013-04-14 08:13:00,43.5,38.4,30.01,ESE,117,15.0,18.0,82,0.00,,---,0.00,VWS V14.01,2013-04-14 12:13:00,
2013-04-14 08:18:00,43.7,38.6,30.02,SE,132,10.0,18.0,82,0.00,,---,0.00,VWS V14.01,2013-04-14 12:18:00,
2013-04-14 08:23:00,43.8,38.7,30.02,ESE,122,9.0,18.0,82,0.00,,---,0.00,VWS V14.01,2013-04-14 12:23:00,
2013-04-14 08:28:00,44.1,39.0,30.02,East,96,6.0,18.0,82,0.00,,---,0.00,VWS V14.01,2013-04-14 12:28:00,
2013-04-14 08:33:00,44.4,38.9,30.01,ESE,121,9.0,18.0,81,0.00,,---,0.00,VWS V14.01,2013-04-14 12:33:00,
2013-04-14 08:38:00,44.8,39.0,30.02,SE,132,10.0,18.0,80,0.00,,---,0.00,VWS V14.01,2013-04-14 12:38:00,
2013-04-14 08:43:00,45.2,39.1,30.02,ESE,116,7.0,18.0,79,0.00,,---,0.00,VWS V14.01,2013-04-14 12:43:00,
2013-04-14 08:48:00,45.5,39.0,30.01,ESE,121,7.0,18.0,78,0.00,,---,0.00,VWS V14.01,2013-04-14 12:48:00,
2013-04-14 08:53:00,45.8,39.3,30.01,East,90,9.0,18.0,78,0.00,,---,0.00,VWS V14.01,2013-04-14 12:53:00,
2013-04-14 08:58:00,46.0,38.9,30.01,SE,128,8.0,18.0,76,0.00,,---,0.00,VWS V14.01,2013-04-14 12:58:00,
2013-04-14 09:00:00,46.0,38.9,30.01,ESE,121,10.0,18.0,76,0.00,,---,0.00,VWS V14.01,2013-04-14 13:00:00,
2013-04-14 09:03:00,46.1,39.3,30.01,SE,125,12.0,12.0,77,0.00,,---,0.00,VWS V14.01,2013-04-14 13:03:00,
2013-04-14 09:08:00,46.1,39.0,30.01,SE,132,6.0,14.0,76,0.00,,---,0.00,VWS V14.01,2013-04-14 13:08:00,
2013-04-14 09:13:00,46.1,39.3,30.01,ESE,107,8.0,14.0,77,0.00,,---,0.00,VWS V14.01,2013-04-14 13:13:00,
2013-04-14 09:18:00,46.0,39.2,30.01,East,96,7.0,14.0,77,0.00,,---,0.00,VWS V14.01,2013-04-14 13:18:00,
2013-04-14 09:23:00,46.0,39.2,30.00,ESE,103,11.0,15.0,77,0.00,,---,0.00,VWS V14.01,2013-04-14 13:23:00,
2013-04-14 09:28:00,46.0,39.2,30.00,East,96,14.0,15.0,77,0.00,,---,0.00,VWS V14.01,2013-04-14 13:28:00,
2013-04-14 09:33:00,46.0,39.2,30.00,East,96,9.0,15.0,77,0.00,,---,0.00,VWS V14.01,2013-04-14 13:33:00,
2013-04-14 09:38:00,46.5,39.7,30.00,ESE,117,8.0,15.0,77,0.00,,---,0.00,VWS V14.01,2013-04-14 13:38:00,
2013-04-14 09:43:00,46.9,40.1,30.00,ESE,122,10.0,15.0,77,0.00,,---,0.00,VWS V14.01,2013-04-14 13:43:00,
2013-04-14 09:48:00,47.2,40.4,30.00,ESE,118,10.0,15.0,77,0.00,,---,0.00,VWS V14.01,2013-04-14 13:48:00,
2013-04-14 09:53:00,47.6,41.1,30.00,SE,129,8.0,15.0,78,0.00,,---,0.00,VWS V14.01,2013-04-14 13:53:00,
2013-04-14 09:58:00,48.0,40.8,30.00,ESE,117,12.0,15.0,76,0.00,,---,0.00,VWS V14.01,2013-04-14 13:58:00,
2013-04-14 10:00:00,48.0,40.8,30.00,SE,124,9.0,15.0,76,0.00,,---,0.00,VWS V14.01,2013-04-14 14:00:00,
2013-04-14 10:03:00,48.5,41.0,30.00,ESE,104,10.0,13.0,75,0.00,,---,0.00,VWS V14.01,2013-04-14 14:03:00,
2013-04-14 10:08:00,49.1,41.5,30.00,ESE,103,6.0,14.0,75,0.00,,---,0.00,VWS V14.01,2013-04-14 14:08:00,
2013-04-14 10:13:00,49.7,41.8,30.00,SE,129,8.0,14.0,74,0.00,,---,0.00,VWS V14.01,2013-04-14 14:13:00,
2013-04-14 10:18:00,50.5,42.5,30.00,ESE,114,9.0,14.0,74,0.00,,---,0.00,VWS V14.01,2013-04-14 14:18:00,
2013-04-14 10:23:00,51.1,42.8,30.00,ESE,105,7.0,14.0,73,0.00,,---,0.00,VWS V14.01,2013-04-14 14:23:00,
2013-04-14 10:28:00,51.5,42.8,29.99,ESE,108,7.0,14.0,72,0.00,,---,0.00,VWS V14.01,2013-04-14 14:28:00,
2013-04-14 10:34:00,51.9,42.8,29.99,ESE,113,8.0,14.0,71,0.00,,---,0.00,VWS V14.01,2013-04-14 14:34:00,
2013-04-14 10:39:00,52.4,42.5,29.99,ESE,111,11.0,14.0,69,0.00,,---,0.00,VWS V14.01,2013-04-14 14:39:00,
2013-04-14 10:43:00,52.7,43.2,29.99,East,101,9.0,14.0,70,0.00,,---,0.00,VWS V14.01,2013-04-14 14:43:00,
2013-04-14 10:49:00,53.0,42.7,29.99,ESE,113,10.0,14.0,68,0.00,,---,0.00,VWS V14.01,2013-04-14 14:49:00,
2013-04-14 10:54:00,53.4,43.1,29.98,ESE,113,8.0,14.0,68,0.00,,---,0.00,VWS V14.01,2013-04-14 14:54:00,
2013-04-14 10:59:00,53.8,43.1,29.98,SE,139,6.0,14.0,67,0.00,,---,0.00,VWS V14.01,2013-04-14 14:59:00,
2013-04-14 11:00:00,53.8,43.1,29.98,SE,139,6.0,14.0,67,0.00,,---,0.00,VWS V14.01,2013-04-14 15:00:00,
2013-04-14 11:04:00,54.2,43.5,29.98,ESE,112,6.0,14.0,67,0.00,,---,0.00,VWS V14.01,2013-04-14 15:04:00,
2013-04-14 11:09:00,54.3,43.6,29.98,ESE,117,6.0,14.0,67,0.00,,---,0.00,VWS V14.01,2013-04-14 15:09:00,
2013-04-14 11:14:00,54.6,43.5,29.98,SE,141,6.0,14.0,66,0.00,,---,0.00,VWS V14.01,2013-04-14 15:14:00,
2013-04-14 11:19:00,55.1,43.6,29.97,SE,128,6.0,14.0,65,0.00,,---,0.00,VWS V14.01,2013-04-14 15:19:00,
2013-04-14 11:24:00,55.6,44.0,29.97,ESE,108,8.0,14.0,65,0.00,,---,0.00,VWS V14.01,2013-04-14 15:24:00,
2013-04-14 11:29:00,56.2,44.6,29.97,SE,138,4.0,14.0,65,0.00,,---,0.00,VWS V14.01,2013-04-14 15:29:00,
2013-04-14 11:34:00,56.8,44.3,29.97,East,94,5.0,14.0,63,0.00,,---,0.00,VWS V14.01,2013-04-14 15:34:00,
2013-04-14 11:39:00,57.5,45.0,29.97,ESE,122,7.0,14.0,63,0.00,,---,0.00,VWS V14.01,2013-04-14 15:39:00,
2013-04-14 11:44:00,58.1,44.7,29.96,ESE,118,9.0,14.0,61,0.00,,---,0.00,VWS V14.01,2013-04-14 15:44:00,
2013-04-14 11:49:00,58.8,45.4,29.96,ESE,120,4.0,14.0,61,0.00,,---,0.00,VWS V14.01,2013-04-14 15:49:00,
2013-04-14 11:54:00,59.5,46.1,29.96,ESE,118,7.0,14.0,61,0.00,,---,0.00,VWS V14.01,2013-04-14 15:54:00,
2013-04-14 11:59:00,59.7,45.4,29.96,SE,130,9.0,9.0,59,0.00,,---,0.00,VWS V14.01,2013-04-14 15:59:00,
2013-04-14 12:00:00,59.7,45.4,29.96,ESE,110,8.0,14.0,59,0.00,,---,0.00,VWS V14.01,2013-04-14 16:00:00,
2013-04-14 12:04:00,60.2,45.8,29.95,ESE,108,7.0,15.0,59,0.00,,---,0.00,VWS V14.01,2013-04-14 16:04:00,
2013-04-14 12:09:00,60.6,44.8,29.95,ESE,108,10.0,15.0,56,0.00,,---,0.00,VWS V14.01,2013-04-14 16:09:00,
2013-04-14 12:14:00,61.1,45.3,29.95,ESE,111,7.0,15.0,56,0.00,,---,0.00,VWS V14.01,2013-04-14 16:14:00,
2013-04-14 12:19:00,61.4,45.1,29.95,ESE,118,8.0,15.0,55,0.00,,---,0.00,VWS V14.01,2013-04-14 16:19:00,
2013-04-14 12:24:00,61.7,45.4,29.95,East,94,7.0,15.0,55,0.00,,---,0.00,VWS V14.01,2013-04-14 16:24:00,
2013-04-14 12:29:00,62.1,46.2,29.94,East,80,8.0,15.0,56,0.00,,---,0.00,VWS V14.01,2013-04-14 16:29:00,
2013-04-14 12:34:00,62.5,45.7,29.94,ESE,103,10.0,15.0,54,0.00,,---,0.00,VWS V14.01,2013-04-14 16:34:00,
2013-04-14 12:39:00,62.9,46.5,29.94,SE,137,9.0,15.0,55,0.00,,---,0.00,VWS V14.01,2013-04-14 16:39:00,
2013-04-14 12:44:00,63.4,47.0,29.94,East,101,11.0,15.0,55,0.00,,---,0.00,VWS V14.01,2013-04-14 16:44:00,
2013-04-14 12:49:00,64.1,47.6,29.94,SE,136,7.0,15.0,55,0.00,,---,0.00,VWS V14.01,2013-04-14 16:49:00,
2013-04-14 12:54:00,64.8,45.2,29.94,SE,145,6.0,15.0,49,0.00,,---,0.00,VWS V14.01,2013-04-14 16:54:00,
2013-04-14 12:59:00,65.3,46.2,29.94,SE,126,10.0,10.0,50,0.00,,---,0.00,VWS V14.01,2013-04-14 16:59:00,
2013-04-14 13:00:00,65.2,46.1,29.93,SE,134,6.0,15.0,50,0.00,,---,0.00,VWS V14.01,2013-04-14 17:00:00,
2013-04-14 13:04:00,65.8,46.1,29.93,ESE,113,6.0,11.0,49,0.00,,---,0.00,VWS V14.01,2013-04-14 17:04:00,
2013-04-14 13:09:00,66.0,46.3,29.93,ESE,111,3.0,11.0,49,0.00,,---,0.00,VWS V14.01,2013-04-14 17:09:00,
2013-04-14 13:14:00,66.4,47.2,29.93,SSE,152,6.0,11.0,50,0.00,,---,0.00,VWS V14.01,2013-04-14 17:14:00,
2013-04-14 13:19:00,66.9,46.6,29.93,SW,217,8.0,11.0,48,0.00,,---,0.00,VWS V14.01,2013-04-14 17:19:00,
2013-04-14 13:24:00,67.6,47.8,29.93,SSW,195,6.0,12.0,49,0.00,,---,0.00,VWS V14.01,2013-04-14 17:24:00,
2013-04-14 13:29:00,68.1,44.8,29.93,SE,141,5.0,12.0,43,0.00,,---,0.00,VWS V14.01,2013-04-14 17:29:00,
2013-04-14 13:34:00,68.3,46.2,29.93,South,179,4.0,12.0,45,0.00,,---,0.00,VWS V14.01,2013-04-14 17:34:00,
2013-04-14 13:39:00,68.2,45.5,29.92,SW,224,10.0,12.0,44,0.00,,---,0.00,VWS V14.01,2013-04-14 17:39:00,
2013-04-14 13:44:00,68.4,47.4,29.92,SSW,194,8.0,12.0,47,0.00,,---,0.00,VWS V14.01,2013-04-14 17:44:00,
2013-04-14 13:49:00,68.8,47.8,29.92,SSE,152,8.0,12.0,47,0.00,,---,0.00,VWS V14.01,2013-04-14 17:49:00,
2013-04-14 13:54:00,69.1,45.7,29.91,South,175,7.0,12.0,43,0.00,,---,0.00,VWS V14.01,2013-04-14 17:54:00,
2013-04-14 13:59:00,69.5,44.8,29.91,SE,142,9.0,12.0,41,0.00,,---,0.00,VWS V14.01,2013-04-14 17:59:00,
2013-04-14 14:00:00,69.5,46.7,29.91,SSE,155,12.0,14.0,44,0.00,,---,0.00,VWS V14.01,2013-04-14 18:00:00,
2013-04-14 14:04:00,69.2,44.5,29.91,SSE,166,11.0,13.0,41,0.00,,---,0.00,VWS V14.01,2013-04-14 18:04:00,
2013-04-14 14:09:00,69.3,44.6,29.90,WSW,239,8.0,13.0,41,0.00,,---,0.00,VWS V14.01,2013-04-14 18:09:00,
2013-04-14 14:14:00,69.4,44.1,29.90,SE,136,12.0,13.0,40,0.00,,---,0.00,VWS V14.01,2013-04-14 18:14:00,
2013-04-14 14:19:00,69.2,43.2,29.90,SE,131,9.0,13.0,39,0.00,,---,0.00,VWS V14.01,2013-04-14 18:19:00,
2013-04-14 14:24:00,69.6,44.2,29.90,SE,136,4.0,13.0,40,0.00,,---,0.00,VWS V14.01,2013-04-14 18:24:00,
2013-04-14 14:29:00,69.7,44.3,29.90,SE,142,5.0,13.0,40,0.00,,---,0.00,VWS V14.01,2013-04-14 18:29:00,
2013-04-14 14:34:00,70.0,44.6,29.90,ESE,121,6.0,13.0,40,0.00,,---,0.00,VWS V14.01,2013-04-14 18:34:00,
2013-04-14 14:39:00,70.4,46.2,29.90,SE,146,5.0,14.0,42,0.00,,---,0.00,VWS V14.01,2013-04-14 18:39:00,
2013-04-14 14:44:00,70.7,43.9,29.90,SSE,151,8.0,14.0,38,0.00,,---,0.00,VWS V14.01,2013-04-14 18:44:00,
2013-04-14 14:49:00,70.9,46.0,29.89,ESE,121,4.0,14.0,41,0.00,,---,0.00,VWS V14.01,2013-04-14 18:49:00,
2013-04-14 14:54:00,70.9,44.7,29.89,South,187,5.0,14.0,39,0.00,,---,0.00,VWS V14.01,2013-04-14 18:54:00,
2013-04-14 14:59:00,71.0,44.1,29.89,SE,134,8.0,13.0,38,0.00,,---,0.00,VWS V14.01,2013-04-14 18:59:00,
2013-04-14 15:00:00,71.0,44.8,29.89,SE,141,14.0,15.0,39,0.00,,---,0.00,VWS V14.01,2013-04-14 19:00:00,
2013-04-14 15:04:00,71.3,43.7,29.89,SSE,148,13.0,15.0,37,0.00,,---,0.00,VWS V14.01,2013-04-14 19:04:00,
2013-04-14 15:09:00,71.6,44.7,29.89,SSW,195,6.0,17.0,38,0.00,,---,0.00,VWS V14.01,2013-04-14 19:09:00,
2013-04-14 15:14:00,71.9,47.6,29.89,SSE,151,9.0,17.0,42,0.00,,---,0.00,VWS V14.01,2013-04-14 19:14:00,
2013-04-14 15:19:00,71.7,46.8,29.88,SSE,154,5.0,17.0,41,0.00,,---,0.00,VWS V14.01,2013-04-14 19:19:00,
2013-04-14 15:24:00,71.4,44.5,29.88,SE,146,8.0,17.0,38,0.00,,---,0.00,VWS V14.01,2013-04-14 19:24:00,
2013-04-14 15:29:00,71.5,43.9,29.88,SSE,159,13.0,17.0,37,0.00,,---,0.00,VWS V14.01,2013-04-14 19:29:00,
2013-04-14 15:34:00,71.6,44.7,29.88,SSE,152,6.0,17.0,38,0.00,,---,0.00,VWS V14.01,2013-04-14 19:34:00,
2013-04-14 15:39:00,71.6,44.7,29.87,South,184,6.0,17.0,38,0.00,,---,0.00,VWS V14.01,2013-04-14 19:39:00,
2013-04-14 15:44:00,71.7,44.8,29.87,SSE,156,11.0,17.0,38,0.00,,---,0.00,VWS V14.01,2013-04-14 19:44:00,
2013-04-14 15:49:00,71.5,44.6,29.87,SE,146,8.0,17.0,38,0.00,,---,0.00,VWS V14.01,2013-04-14 19:49:00,
2013-04-14 15:54:00,71.7,44.8,29.87,SSE,156,14.0,17.0,38,0.00,,---,0.00,VWS V14.01,2013-04-14 19:54:00,
2013-04-14 15:59:00,71.5,45.9,29.87,SE,132,6.0,7.0,40,0.00,,---,0.00,VWS V14.01,2013-04-14 19:59:00,
2013-04-14 16:00:00,71.6,44.0,29.87,SE,133,7.0,17.0,37,0.00,,---,0.00,VWS V14.01,2013-04-14 20:00:00,
2013-04-14 16:04:00,71.6,44.7,29.87,SSE,155,14.0,15.0,38,0.00,,---,0.00,VWS V14.01,2013-04-14 20:04:00,
2013-04-14 16:09:00,71.6,44.0,29.86,SE,140,14.0,17.0,37,0.00,,---,0.00,VWS V14.01,2013-04-14 20:09:00,
2013-04-14 16:14:00,71.5,45.3,29.86,SE,143,13.0,17.0,39,0.00,,---,0.00,VWS V14.01,2013-04-14 20:14:00,
2013-04-14 16:19:00,71.5,45.9,29.86,SE,130,6.0,17.0,40,0.00,,---,0.00,VWS V14.01,2013-04-14 20:19:00,
2013-04-14 16:24:00,71.3,45.1,29.86,SE,134,11.0,17.0,39,0.00,,---,0.00,VWS V14.01,2013-04-14 20:24:00,
2013-04-14 16:30:00,71.0,45.5,29.86,SE,145,9.0,17.0,40,0.00,,---,0.00,VWS V14.01,2013-04-14 20:30:00,
2013-04-14 16:35:00,70.9,44.7,29.85,SSE,152,12.0,17.0,39,0.00,,---,0.00,VWS V14.01,2013-04-14 20:35:00,
2013-04-14 16:40:00,70.9,45.4,29.85,ESE,121,9.0,17.0,40,0.00,,---,0.00,VWS V14.01,2013-04-14 20:40:00,
2013-04-14 16:45:00,70.9,45.4,29.85,SE,126,12.0,17.0,40,0.00,,---,0.00,VWS V14.01,2013-04-14 20:45:00,
2013-04-14 16:50:00,70.7,45.2,29.85,ESE,115,10.0,17.0,40,0.00,,---,0.00,VWS V14.01,2013-04-14 20:50:00,
2013-04-14 16:55:00,70.5,45.0,29.85,ESE,106,11.0,17.0,40,0.00,,---,0.00,VWS V14.01,2013-04-14 20:55:00,
2013-04-14 17:00:00,70.5,45.7,29.84,SE,127,12.0,14.0,41,0.00,,---,0.00,VWS V14.01,2013-04-14 21:00:00,
2013-04-14 17:05:00,70.4,44.3,29.84,SE,141,7.0,17.0,39,0.00,,---,0.00,VWS V14.01,2013-04-14 21:05:00,
2013-04-14 17:10:00,70.5,45.7,29.84,East,79,14.0,17.0,41,0.00,,---,0.00,VWS V14.01,2013-04-14 21:10:00,
2013-04-14 17:15:00,70.4,45.6,29.84,SE,129,5.0,17.0,41,0.00,,---,0.00,VWS V14.01,2013-04-14 21:15:00,
2013-04-14 17:20:00,70.4,45.6,29.84,SE,139,12.0,17.0,41,0.00,,---,0.00,VWS V14.01,2013-04-14 21:20:00,
2013-04-14 17:25:00,70.5,46.3,29.84,SE,141,8.0,17.0,42,0.00,,---,0.00,VWS V14.01,2013-04-14 21:25:00,
2013-04-14 17:30:00,70.3,46.2,29.84,East,93,7.0,17.0,42,0.00,,---,0.00,VWS V14.01,2013-04-14 21:30:00,
2013-04-14 17:35:00,70.2,46.1,29.84,SE,146,7.0,17.0,42,0.00,,---,0.00,VWS V14.01,2013-04-14 21:35:00,
2013-04-14 17:40:00,70.2,45.4,29.84,SE,138,13.0,18.0,41,0.00,,---,0.00,VWS V14.01,2013-04-14 21:40:00,
2013-04-14 17:45:00,70.3,46.8,29.84,ESE,108,10.0,18.0,43,0.00,,---,0.00,VWS V14.01,2013-04-14 21:45:00,
2013-04-14 17:50:00,70.4,46.2,29.84,ESE,122,11.0,18.0,42,0.00,,---,0.00,VWS V14.01,2013-04-14 21:50:00,
2013-04-14 17:55:00,70.4,45.6,29.83,SE,134,11.0,18.0,41,0.00,,---,0.00,VWS V14.01,2013-04-14 21:55:00,
2013-04-14 18:00:00,70.4,46.2,29.83,ESE,118,7.0,11.0,42,0.00,,---,0.00,VWS V14.01,2013-04-14 22:00:00,
2013-04-14 18:05:00,70.5,46.3,29.83,ESE,108,14.0,14.0,42,0.00,,---,0.00,VWS V14.01,2013-04-14 22:05:00,
2013-04-14 18:10:00,70.5,45.7,29.83,SE,128,9.0,17.0,41,0.00,,---,0.00,VWS V14.01,2013-04-14 22:10:00,
2013-04-14 18:15:00,70.6,45.8,29.83,SE,134,8.0,17.0,41,0.00,,---,0.00,VWS V14.01,2013-04-14 22:15:00,
2013-04-14 18:20:00,70.6,44.5,29.83,SE,136,7.0,18.0,39,0.00,,---,0.00,VWS V14.01,2013-04-14 22:20:00,
2013-04-14 18:25:00,70.5,44.4,29.83,SE,129,8.0,18.0,39,0.00,,---,0.00,VWS V14.01,2013-04-14 22:25:00,
2013-04-14 18:30:00,70.3,45.5,29.83,East,96,8.0,18.0,41,0.00,,---,0.00,VWS V14.01,2013-04-14 22:30:00,
2013-04-14 18:35:00,70.2,46.1,29.83,ESE,113,7.0,18.0,42,0.00,,---,0.00,VWS V14.01,2013-04-14 22:35:00,
2013-04-14 18:40:00,70.2,45.4,29.83,SE,138,9.0,18.0,41,0.00,,---,0.00,VWS V14.01,2013-04-14 22:40:00,
2013-04-14 18:45:00,70.2,46.7,29.83,ESE,117,6.0,18.0,43,0.00,,---,0.00,VWS V14.01,2013-04-14 22:45:00,
2013-04-14 18:50:00,70.3,47.4,29.83,SE,131,8.0,18.0,44,0.00,,---,0.00,VWS V14.01,2013-04-14 22:50:00,
2013-04-14 18:55:00,70.5,47.0,29.83,SE,128,10.0,18.0,43,0.00,,---,0.00,VWS V14.01,2013-04-14 22:55:00,
2013-04-14 19:00:00,70.5,47.0,29.83,East,83,13.0,17.0,43,0.00,,---,0.00,VWS V14.01,2013-04-14 23:00:00,
2013-04-14 19:05:00,70.4,47.5,29.83,SE,134,7.0,17.0,44,0.00,,---,0.00,VWS V14.01,2013-04-14 23:05:00,
2013-04-14 19:10:00,70.4,46.9,29.83,East,97,8.0,17.0,43,0.00,,---,0.00,VWS V14.01,2013-04-14 23:10:00,
2013-04-14 19:15:00,70.3,47.4,29.83,ESE,107,7.0,17.0,44,0.00,,---,0.00,VWS V14.01,2013-04-14 23:15:00,
2013-04-14 19:20:00,70.3,46.8,29.84,East,101,11.0,17.0,43,0.00,,---,0.00,VWS V14.01,2013-04-14 23:20:00,
2013-04-14 19:25:00,70.2,46.7,29.83,SSE,163,8.0,18.0,43,0.00,,---,0.00,VWS V14.01,2013-04-14 23:25:00,
2013-04-14 19:30:00,70.1,46.6,29.84,SE,127,12.0,19.0,43,0.00,,---,0.00,VWS V14.01,2013-04-14 23:30:00,
2013-04-14 19:35:00,70.0,46.5,29.83,ESE,120,8.0,19.0,43,0.00,,---,0.00,VWS V14.01,2013-04-14 23:35:00,
2013-04-14 19:40:00,69.9,46.4,29.83,SE,134,7.0,19.0,43,0.00,,---,0.00,VWS V14.01,2013-04-14 23:40:00,
2013-04-14 19:45:00,69.7,46.8,29.83,SE,133,12.0,19.0,44,0.00,,---,0.00,VWS V14.01,2013-04-14 23:45:00,
2013-04-14 19:50:00,69.5,46.0,29.83,SE,132,11.0,19.0,43,0.00,,---,0.00,VWS V14.01,2013-04-14 23:50:00,
2013-04-14 19:55:00,69.5,46.0,29.83,SE,127,9.0,19.0,43,0.00,,---,0.00,VWS V14.01,2013-04-14 23:55:00,
2013-04-14 20:00:00,69.2,46.4,29.83,ESE,120,10.0,11.0,44,0.00,,---,0.00,VWS V14.01,2013-04-15 00:00:00,
2013-04-14 20:05:00,68.8,46.6,29.83,SE,130,7.0,12.0,45,0.00,,---,0.00,VWS V14.01,2013-04-15 00:05:00,
2013-04-14 20:10:00,68.3,46.7,29.83,East,90,6.0,12.0,46,0.00,,---,0.00,VWS V14.01,2013-04-15 00:10:00,
2013-04-14 20:15:00,67.9,46.4,29.83,ESE,121,6.0,12.0,46,0.00,,---,0.00,VWS V14.01,2013-04-15 00:15:00,
2013-04-14 20:20:00,67.7,46.2,29.83,ESE,122,10.0,12.0,46,0.00,,---,0.00,VWS V14.01,2013-04-15 00:20:00,
2013-04-14 20:25:00,67.5,46.6,29.83,SE,124,5.0,12.0,47,0.00,,---,0.00,VWS V14.01,2013-04-15 00:25:00,
2013-04-14 20:30:00,67.1,46.2,29.83,SE,126,4.0,12.0,47,0.00,,---,0.00,VWS V14.01,2013-04-15 00:30:00,
2013-04-14 20:35:00,66.8,46.5,29.83,SE,125,8.0,12.0,48,0.00,,---,0.00,VWS V14.01,2013-04-15 00:35:00,
2013-04-14 20:40:00,66.6,46.3,29.83,ESE,118,5.0,13.0,48,0.00,,---,0.00,VWS V14.01,2013-04-15 00:40:00,
2013-04-14 20:45:00,66.4,46.1,29.83,SE,131,6.0,14.0,48,0.00,,---,0.00,VWS V14.01,2013-04-15 00:45:00,
2013-04-14 20:50:00,66.3,46.0,29.83,SE,129,8.0,14.0,48,0.00,,---,0.00,VWS V14.01,2013-04-15 00:50:00,
2013-04-14 20:55:00,66.1,46.4,29.83,SE,136,7.0,14.0,49,0.00,,---,0.00,VWS V14.01,2013-04-15 00:55:00,
2013-04-14 21:00:00,65.9,46.2,29.84,SE,130,5.0,10.0,49,0.00,,---,0.00,VWS V14.01,2013-04-15 01:00:00,
2013-04-14 21:05:00,66.0,46.3,29.83,SE,143,7.0,12.0,49,0.00,,---,0.00,VWS V14.01,2013-04-15 01:05:00,
2013-04-14 21:10:00,65.7,46.0,29.83,ESE,114,10.0,13.0,49,0.00,,---,0.00,VWS V14.01,2013-04-15 01:10:00,
2013-04-14 21:16:00,65.5,46.4,29.84,SE,136,8.0,13.0,50,0.00,,---,0.00,VWS V14.01,2013-04-15 01:16:00,
2013-04-14 21:21:00,65.4,46.3,29.84,ESE,121,8.0,13.0,50,0.00,,---,0.00,VWS V14.01,2013-04-15 01:21:00,
2013-04-14 21:26:00,65.4,46.3,29.84,SE,126,7.0,15.0,50,0.00,,---,0.00,VWS V14.01,2013-04-15 01:26:00,
2013-04-14 21:31:00,65.4,46.8,29.84,SE,132,9.0,15.0,51,0.00,,---,0.00,VWS V14.01,2013-04-15 01:31:00,
2013-04-14 21:36:00,65.2,46.6,29.84,SE,131,8.0,15.0,51,0.00,,---,0.00,VWS V14.01,2013-04-15 01:36:00,
2013-04-14 21:41:00,64.9,46.9,29.84,ESE,104,7.0,15.0,52,0.00,,---,0.00,VWS V14.01,2013-04-15 01:41:00,
2013-04-14 21:46:00,64.7,46.7,29.84,SE,137,8.0,15.0,52,0.00,,---,0.00,VWS V14.01,2013-04-15 01:46:00,
2013-04-14 21:51:00,64.6,47.1,29.84,ESE,118,8.0,15.0,53,0.00,,---,0.00,VWS V14.01,2013-04-15 01:51:00,
2013-04-14 21:56:00,64.5,47.0,29.84,ESE,122,9.0,15.0,53,0.00,,---,0.00,VWS V14.01,2013-04-15 01:56:00,
2013-04-14 22:00:00,64.4,47.4,29.84,SE,130,8.0,15.0,54,0.00,,---,0.00,VWS V14.01,2013-04-15 02:00:00,
2013-04-14 22:01:00,64.2,47.2,29.84,SE,127,7.0,10.0,54,0.00,,---,0.00,VWS V14.01,2013-04-15 02:01:00,
2013-04-14 22:06:00,63.9,47.4,29.85,ESE,118,8.0,11.0,55,0.00,,---,0.00,VWS V14.01,2013-04-15 02:06:00,
2013-04-14 22:11:00,63.9,47.4,29.85,SE,126,10.0,13.0,55,0.00,,---,0.00,VWS V14.01,2013-04-15 02:11:00,
2013-04-14 22:16:00,63.6,47.6,29.85,SSE,153,5.0,13.0,56,0.00,,---,0.00,VWS V14.01,2013-04-15 02:16:00,
2013-04-14 22:21:00,63.4,47.5,29.85,SE,138,6.0,13.0,56,0.00,,---,0.00,VWS V14.01,2013-04-15 02:21:00,
2013-04-14 22:26:00,63.2,47.3,29.85,SE,127,8.0,13.0,56,0.00,,---,0.00,VWS V14.01,2013-04-15 02:26:00,
2013-04-14 22:31:00,63.0,47.5,29.85,SE,138,7.0,13.0,57,0.00,,---,0.00,VWS V14.01,2013-04-15 02:31:00,
2013-04-14 22:36:00,62.9,47.5,29.85,SE,138,6.0,13.0,57,0.00,,---,0.00,VWS V14.01,2013-04-15 02:36:00,
2013-04-14 22:41:00,62.8,47.4,29.86,SE,129,5.0,13.0,57,0.00,,---,0.00,VWS V14.01,2013-04-15 02:41:00,
2013-04-14 22:46:00,62.6,47.6,29.86,SE,128,7.0,13.0,58,0.00,,---,0.00,VWS V14.01,2013-04-15 02:46:00,
2013-04-14 22:51:00,62.6,47.6,29.86,ESE,121,6.0,13.0,58,0.00,,---,0.00,VWS V14.01,2013-04-15 02:51:00,
2013-04-14 22:56:00,62.8,47.4,29.86,SE,129,4.0,13.0,57,0.00,,---,0.00,VWS V14.01,2013-04-15 02:56:00,
2013-04-14 23:00:00,62.9,47.5,29.86,SE,138,8.0,13.0,57,0.00,,---,0.00,VWS V14.01,2013-04-15 03:00:00,
2013-04-14 23:01:00,62.9,47.0,29.86,SE,145,6.0,11.0,56,0.00,,---,0.00,VWS V14.01,2013-04-15 03:01:00,
2013-04-14 23:06:00,63.1,47.2,29.86,SSE,149,11.0,11.0,56,0.00,,---,0.00,VWS V14.01,2013-04-15 03:06:00,
2013-04-14 23:11:00,63.3,46.9,29.86,SSE,155,10.0,13.0,55,0.00,,---,0.00,VWS V14.01,2013-04-15 03:11:00,
2013-04-14 23:16:00,63.3,46.9,29.86,SSE,162,12.0,14.0,55,0.00,,---,0.00,VWS V14.01,2013-04-15 03:16:00,
2013-04-14 23:21:00,63.5,46.6,29.86,SSW,205,7.0,17.0,54,0.00,,---,0.00,VWS V14.01,2013-04-15 03:21:00,
2013-04-14 23:26:00,63.3,46.4,29.86,SSE,159,8.0,17.0,54,0.00,,---,0.00,VWS V14.01,2013-04-15 03:26:00,
2013-04-14 23:31:00,63.2,46.3,29.86,South,171,6.0,17.0,54,0.00,,---,0.00,VWS V14.01,2013-04-15 03:31:00,
2013-04-14 23:36:00,63.2,46.3,29.86,SSE,153,9.0,17.0,54,0.00,,---,0.00,VWS V14.01,2013-04-15 03:36:00,
2013-04-14 23:41:00,63.0,46.1,29.87,SSE,162,7.0,17.0,54,0.00,,---,0.00,VWS V14.01,2013-04-15 03:41:00,
2013-04-14 23:46:00,63.1,46.2,29.86,South,186,14.0,18.0,54,0.00,,---,0.00,VWS V14.01,2013-04-15 03:46:00,
2013-04-14 23:51:00,63.0,46.1,29.87,South,187,11.0,20.0,54,0.00,,---,0.00,VWS V14.01,2013-04-15 03:51:00,
2013-04-14 23:57:00,62.8,46.4,29.86,SSE,150,11.0,20.0,55,0.00,,---,0.00,VWS V14.01,2013-04-15 03:57:00,